Arlington, TX

1:38 PM CDT on September 30, 2016 (GMT -0500)
Grand Prairie Municipal

Weather History for KGPM - August, 2013

Change the Weather History Date:

Friday, August 16, 2013

  Actual Average (KDFW) Record (KDFW)
Temperature  
Mean Temperature 78 °F 86 °F  
Max Temperature 87 °F 97 °F 110 °F (1943)
Min Temperature 69 °F 76 °F 62 °F (1992)
Degree Days  
Heating Degree Days 0 0  
Month to date heating degree days 0  
Since 1 June heating degree days 0  
Since 1 July heating degree days 0  
Cooling Degree Days 13 21  
Month to date cooling degree days 336  
Year to date cooling degree days 1880  
Since 1 June cooling degree days 1458  
Growing Degree Days 28 (Base 50)    
Moisture  
Dew Point 61 °F    
Average Humidity 59    
Maximum Humidity 83    
Minimum Humidity 40    
Precipitation  
Precipitation 0.00 in 0.05 in 0.45 in (1940)
Month to date precipitation 0.86  
Year to date precipitation 23.06  
Sea Level Pressure  
Sea Level Pressure 30.04 in    
Wind  
Wind Speed 6 mph (East)    
Max Wind Speed 18 mph    
Max Gust Speed 24 mph    
Visibility 10 miles    
Events      
T = Trace of Precipitation, MM = Missing Value Source: NWS Daily Summary

Daily Weather History Graph

Daily Weather History Graph

Search for Another Location

Airport or City:

Trip Planner

Search our weather history database for the weather conditions in past years. The results will help you decide how hot, cold, wet, or windy it might be!

Date:

Astronomy

Aug. 16, 2013 Rise Set
Actual Time 6:52 AM CDT 8:11 PM CDT
Civil Twilight 6:26 AM CDT 8:37 PM CDT
Nautical Twilight 5:55 AM CDT 9:08 PM CDT
Astronomical Twilight 5:23 AM CDT 9:40 PM CDT
Moon 4:25 PM CDT (8/16) 2:02 AM CDT (8/16)
Length of Visible Light 14h 10m
Length of Day
13h 19m
Waxing Gibbous, 75% of the Moon is Illuminated
Aug 16
Waxing Gibbous
Aug 20
Full
Aug 28
Last Quarter
Sep 5
New
Sep 12
First Quarter

Hourly Weather History & Observations

Time (CDT) Temp. Heat Index Dew Point Humidity Pressure Visibility Wind Dir Wind Speed Gust Speed Precip Events Conditions
12:15 AM 77.0 °F - 60.8 °F 57% 30.03 in 10.0 mi SE 5.8 mph - N/A   Clear
12:35 AM 77.0 °F - 60.8 °F 57% 30.02 in 10.0 mi SE 4.6 mph - N/A   Clear
12:55 AM 77.0 °F - 60.8 °F 57% 30.02 in 10.0 mi SE 6.9 mph - N/A   Clear
1:15 AM 77.0 °F - 59.0 °F 54% 30.01 in 10.0 mi SE 5.8 mph - N/A   Clear
1:35 AM 77.0 °F - 59.0 °F 54% 30.01 in 10.0 mi SE 4.6 mph - N/A   Clear
1:55 AM 77.0 °F - 59.0 °F 54% 30.01 in 10.0 mi SE 4.6 mph - N/A   Clear
2:15 AM 75.2 °F - 59.0 °F 57% 30.01 in 10.0 mi SE 4.6 mph - N/A   Clear
2:35 AM 75.2 °F - 59.0 °F 57% 30.01 in 10.0 mi SE 4.6 mph - N/A   Clear
2:55 AM 75.2 °F - 59.0 °F 57% 30.01 in 10.0 mi SE 3.5 mph - N/A   Clear
3:15 AM 73.4 °F - 59.0 °F 61% 30.01 in 10.0 mi ESE 4.6 mph - N/A   Clear
3:35 AM 73.4 °F - 59.0 °F 61% 30.02 in 10.0 mi ESE 4.6 mph - N/A   Clear
3:55 AM 73.4 °F - 59.0 °F 61% 30.01 in 10.0 mi SE 3.5 mph - N/A   Clear
4:15 AM 73.4 °F - 59.0 °F 61% 30.02 in 10.0 mi Calm Calm - N/A   Clear
4:35 AM 73.4 °F - 59.0 °F 61% 30.02 in 10.0 mi SE 3.5 mph - N/A   Clear
4:55 AM 73.4 °F - 59.0 °F 61% 30.03 in 10.0 mi ESE 5.8 mph - N/A   Clear
5:15 AM 73.4 °F - 59.0 °F 61% 30.08 in 10.0 mi North 18.4 mph - N/A   Scattered Clouds
5:35 AM 73.4 °F - 59.0 °F 61% 30.08 in 10.0 mi NNE 10.4 mph 19.6 mph N/A   Mostly Cloudy
5:55 AM 71.6 °F - 60.8 °F 69% 30.08 in 10.0 mi NE 16.1 mph 24.2 mph N/A   Scattered Clouds
6:15 AM 69.8 °F - 60.8 °F 73% 30.08 in 10.0 mi NE 12.7 mph - N/A   Scattered Clouds
6:35 AM 69.8 °F - 60.8 °F 73% 30.09 in 10.0 mi NE 8.1 mph - N/A   Clear
6:50 AM 69.8 °F - 62.6 °F 78% 30.09 in 10.0 mi NE 10.4 mph - N/A   Clear
6:55 AM 69.8 °F - 60.8 °F 73% 30.09 in 10.0 mi NE 6.9 mph - N/A   Clear
7:50 AM 69.8 °F - 64.4 °F 83% 30.05 in 10.0 mi SSW 6.9 mph - N/A   Scattered Clouds
8:50 AM 69.8 °F - 64.4 °F 83% 30.05 in 10.0 mi SSW 6.9 mph - N/A   Scattered Clouds
9:50 AM 71.6 °F - 64.4 °F 78% 30.07 in 10.0 mi Calm Calm - N/A   Clear
10:50 AM 73.4 °F - 62.6 °F 69% 30.05 in 10.0 mi Calm Calm - N/A   Clear
11:50 AM 75.2 °F - 62.6 °F 65% 30.06 in 10.0 mi Calm Calm - N/A   Clear
12:50 PM 78.8 °F - 64.4 °F 61% 30.05 in 10.0 mi Calm Calm - N/A   Clear
1:50 PM 82.4 °F 83.9 °F 64.4 °F 54% 30.03 in 10.0 mi ENE 5.8 mph - N/A   Clear
2:50 PM 84.2 °F 85.0 °F 62.6 °F 48% 30.01 in 10.0 mi North 9.2 mph - N/A   Clear
3:50 PM 86.0 °F 87.3 °F 64.4 °F 48% 30.00 in 10.0 mi NE 4.6 mph - N/A   Clear
4:50 PM 87.8 °F 88.5 °F 62.6 °F 43% 29.99 in 10.0 mi NE 9.2 mph - N/A   Clear
5:50 PM 87.8 °F 87.6 °F 60.8 °F 40% 29.99 in 10.0 mi NE 8.1 mph - N/A   Clear
7:50 PM 84.2 °F 84.4 °F 60.8 °F 45% 30.00 in 10.0 mi NNE 6.9 mph - N/A   Clear
8:50 PM 82.4 °F 82.9 °F 60.8 °F 48% 30.02 in 10.0 mi NE 4.6 mph - N/A   Clear
9:15 PM 80.6 °F 81.1 °F 59.0 °F 48% 30.03 in 10.0 mi NE 5.8 mph - N/A   Clear
9:35 PM 80.6 °F 81.1 °F 59.0 °F 48% 30.04 in 10.0 mi East 5.8 mph - N/A   Clear
9:55 PM 78.8 °F - 60.8 °F 54% 30.04 in 5.0 mi East 5.8 mph - N/A   Clear
10:15 PM 78.8 °F - 60.8 °F 54% 30.06 in 10.0 mi East 4.6 mph - N/A   Clear
10:35 PM 77.0 °F - 60.8 °F 57% 30.06 in 10.0 mi East 4.6 mph - N/A   Clear
10:55 PM 77.0 °F - 60.8 °F 57% 30.07 in 10.0 mi East 9.2 mph - N/A   Clear
11:15 PM 77.0 °F - 60.8 °F 57% 30.08 in 10.0 mi East 9.2 mph - N/A   Clear
11:35 PM 77.0 °F - 60.8 °F 57% 30.09 in 10.0 mi East 9.2 mph - N/A   Clear
11:55 PM 75.2 °F - 60.8 °F 61% 30.10 in 10.0 mi East 8.1 mph - N/A   Clear